Location: Dos Palmas
(32.4468°N, 116.8732°W)
Time: 05:29:39
(UTC+00:00)

Cosmos 1867 - Pass Details

Date: 20 June 2021
Orbit: 773 x 803 km, 65.0° (Epoch: 29 July)

Event Time Altitude Azimuth Distance (km) Brightness Sun altitude
Rises 06:15:56 0° 337° (NNW) 3,315 8.0 -29.9°
Reaches altitude 10° 06:18:26 10° 342° (NNW) 2,381 6.9 -30.1°
Enters shadow 06:23:01 49° 29° (NNE) 1,019 4.2 -30.5°
